Location: NJAA Observatory
(40.6819°N, 74.8979°W)
Time: 15:10:42
(UTC-05:00)

Courier 1B - All Passes

Search period start: 01 March 2017 00:00
Search period end: 11 March 2017 00:00
Orbit: 963 x 1209 km, 28.3° (Epoch: 01 March)

Date Brightness Start Highest point End Pass type
(mag) Time Alt. Az. Time Alt. Az. Time Alt. Az.
01 Mar - 00:47:39 10° WSW 00:53:52 30° S 00:59:47 10° ESE night (unlit)
01 Mar - 02:41:47 10° WSW 02:47:07 23° SSW 02:52:14 10° SE visible
01 Mar - 22:01:23 10° SSW 22:06:51 21° SSE 22:12:10 10° ESE night (unlit)
01 Mar - 23:53:52 10° SW 00:00:14 30° S 00:06:16 10° ESE night (unlit)
02 Mar - 01:47:44 10° WSW 01:53:34 26° SSW 01:59:06 10° SE night (unlit)
02 Mar - 03:43:25 10° SW 03:46:35 13° SSW 03:49:40 10° S visible
02 Mar - 21:08:17 10° SSW 21:13:13 18° SSE 21:18:02 10° ESE visible
02 Mar - 23:00:11 10° SW 23:06:34 29° S 23:12:39 10° ESE night (unlit)
03 Mar - 00:53:46 10° WSW 00:59:58 29° S 01:05:51 10° SE night (unlit)
03 Mar - 02:48:40 10° WSW 02:53:06 17° SSW 02:57:22 10° SSE night (unlit)
03 Mar - 20:15:34 10° S 20:19:35 15° SSE 20:23:32 10° SE visible
03 Mar - 22:06:36 10° SW 22:12:52 27° S 22:18:55 10° ESE visible
03 Mar - 23:59:51 10° WSW 00:06:18 31° S 00:12:27 10° SE night (unlit)
04 Mar - 01:54:18 10° WSW 01:59:35 21° SSW 02:04:37 10° SSE night (unlit)
04 Mar - 19:23:46 10° SSE 19:25:58 11° SSE 19:28:10 10° SE visible
04 Mar - 21:13:08 10° SW 21:19:11 25° SSE 21:25:03 10° ESE visible
04 Mar - 23:06:01 10° WSW 23:12:37 32° S 23:18:56 10° ESE night (unlit)
05 Mar - 01:00:08 10° WSW 01:05:59 25° SSW 01:11:36 10° SE night (unlit)
05 Mar - 02:56:51 10° SW 02:58:59 11° SSW 03:01:05 10° S night (unlit)
05 Mar - 20:19:53 10° SSW 20:25:29 21° SSE 20:31:01 10° ESE visible
05 Mar - 22:12:16 10° SW 22:18:54 31° S 22:25:20 10° ESE visible
06 Mar - 00:06:04 10° WSW 00:12:22 28° S 00:18:23 10° SE night (unlit)
06 Mar - 02:01:28 10° WSW 02:05:29 15° SSW 02:09:23 10° S night (unlit)
06 Mar - 19:26:54 10° SSW 19:31:50 18° SSE 19:36:44 10° ESE visible
06 Mar - 21:18:36 10° SW 21:25:11 30° S 21:31:36 10° ESE visible
06 Mar - 23:12:06 10° WSW 23:18:41 31° S 23:25:01 10° SE night (unlit)
07 Mar - 01:06:52 10° WSW 01:11:56 20° SSW 01:16:50 10° SSE night (unlit)
07 Mar - 18:34:23 10° S 18:38:12 14° SSE 18:42:01 10° SE visible
07 Mar - 20:25:05 10° SW 20:31:27 27° SSE 20:37:45 10° ESE visible
07 Mar - 22:18:13 10° WSW 22:24:58 32° S 22:31:30 10° ESE visible
08 Mar - 00:12:33 10° WSW 00:18:21 24° SSW 00:23:56 10° SSE night (unlit)
08 Mar - 17:43:13 10° SSE 17:44:36 10° SSE 17:45:58 10° SE daylight
08 Mar - 19:31:44 10° SW 19:37:45 24° SSE 19:43:45 10° ESE visible
08 Mar - 21:24:26 10° WSW 21:31:13 33° S 21:37:53 10° ESE visible
08 Mar - 23:18:25 10° WSW 23:24:42 27° SSW 23:30:46 10° SE night (unlit)
09 Mar - 01:14:29 10° SW 01:17:49 13° SSW 01:21:04 10° S night (unlit)
09 Mar - 18:38:36 10° SSW 18:44:04 21° SSE 18:49:34 10° ESE visible
09 Mar - 20:30:45 10° SW 20:37:28 32° S 20:44:08 10° ESE visible
09 Mar - 22:24:24 10° WSW 22:31:00 30° S 22:37:25 10° SE visible
10 Mar - 00:19:32 10° WSW 00:24:15 17° SSW 00:28:51 10° SSE night (unlit)
10 Mar - 17:45:49 10° SSW 17:50:25 17° SSE 17:55:06 10° ESE daylight
10 Mar - 19:37:12 10° SW 19:43:43 30° S 19:50:17 10° ESE visible
10 Mar - 21:30:30 10° WSW 21:37:16 32° S 21:43:54 10° SE visible
10 Mar - 23:25:04 10° WSW 23:30:38 21° SSW 23:36:04 10° SSE night (unlit)
